20060204,024225,2.247,32.955500,-117.311180,14.8300,33.3890,0.6100,15449,NaN,14.830,33.390,40.980,  NaN,NaN,0.575, NaN, NaN,16.100, NaN,   NaN,13.00,1017.42,95.00,NaN,220.0,NaN,3.7,NaN,170.2,NaN,7.1,NaN,NaN,0.575,NaN,190.0,NaN,NaN,NaN,2,0.6,024235,   NaN,309.4,     NaN,      NaN,NaN,0.5,NaN, NaN,0.386,NaN,NaN, NaN, NaN
20060204,035950,2.048,32.948320,-117.284500,14.7300,33.3630,5.1100,20069,NaN,14.690,33.370,40.820,  NaN,NaN,1.198, NaN, NaN,16.000, NaN,   NaN,13.10,1018.35,94.50,NaN,246.0,NaN,4.3,NaN,151.1,NaN,8.4,NaN,NaN,1.198,NaN,236.0,NaN,NaN,NaN,2,0.5,035934,   NaN,266.1,     NaN,      NaN,NaN,0.0,NaN, NaN,0.469,NaN,NaN, NaN, NaN
20060204,064445,2.076,33.243660,-117.463680,14.4500,33.3960,1.0200,29969,NaN,14.440,33.400,40.620,  NaN,NaN,0.648, NaN, NaN,15.800, NaN,   NaN,12.20,1018.03,95.50,NaN,354.0,NaN,3.5,NaN,84.1,NaN,6.9,NaN,NaN,0.648,NaN,260.0,NaN,NaN,NaN,2,0.3,064434,   NaN,90.4,     NaN,      NaN,NaN,-0.7,NaN, NaN,0.386,NaN,NaN, NaN, NaN
20060204,101701,2.499,32.909200,-117.395500,14.8500,33.3920,0.4500,42719,NaN,14.830,33.390,40.980,  NaN,NaN,0.437, NaN, NaN,16.100, NaN,   NaN,12.60,1017.57,96.80,NaN,269.0,NaN,2.1,NaN,248.4,NaN,4.1,NaN,NaN,0.437,NaN,136.0,NaN,NaN,NaN,2,0.6,101704,   NaN,347.9,     NaN,      NaN,NaN,-0.3,NaN, NaN,0.365,NaN,NaN, NaN, NaN
20060204,131419,2.486,32.850320,-117.532180,15.3400,33.3530,0.2100,53338,NaN,15.320,33.350,41.400,  NaN,NaN,0.275, NaN, NaN,16.500, NaN,   NaN,12.70,1017.66,93.00,NaN,64.0,NaN,4.6,NaN,357.7,NaN,8.9,NaN,NaN,0.275,NaN,207.0,NaN,NaN,NaN,2,0.6,131404,   NaN,287.1,     NaN,      NaN,NaN,0.0,NaN, NaN,0.343,NaN,NaN, NaN, NaN
20060205,003307,2.555,32.519160,-118.212680,14.8400,33.3690,0.5000,94077,NaN,14.820,33.370,40.960,  NaN,NaN,0.672, NaN, NaN,16.100, NaN,   NaN,12.20,1013.99,96.10,NaN,333.0,NaN,3.1,NaN,301.5,NaN,6.0,NaN,NaN,0.672,NaN,38.0,NaN,NaN,NaN,2,0.7,003303,   NaN,322.9,     NaN,      NaN,NaN,0.0,NaN, NaN,0.337,NaN,NaN, NaN, NaN
20060205,043654,2.569,32.346660,-118.551000,14.1300,33.3830,0.6800,108717,NaN,14.140,33.390,40.330,  NaN,NaN,0.864, NaN, NaN,15.400, NaN,   NaN,13.60,1013.69,93.90,NaN,295.0,NaN,6.1,NaN,310.8,NaN,11.9,NaN,NaN,0.864,NaN,38.0,NaN,NaN,NaN,2,1.3,043703,   NaN,21.5,     NaN,      NaN,NaN,0.9,NaN, NaN,0.339,NaN,NaN, NaN, NaN
20060205,085141,3.463,32.178050,-118.891000,13.1800,33.4070,0.8300,123987,NaN,13.180,33.410,39.460,  NaN,NaN,0.731, NaN, NaN,14.500, NaN,   NaN,13.20,1013.45,94.40,NaN,39.0,NaN,3.9,NaN,343.1,NaN,7.5,NaN,NaN,0.731,NaN,280.0,NaN,NaN,NaN,2,0.7,085132,   NaN,297.7,     NaN,      NaN,NaN,0.9,NaN, NaN,0.328,NaN,NaN, NaN, NaN
20060205,125334,2.282,32.011660,-119.223340,14.5600,33.3130,0.4300,138506,NaN,14.560,33.310,40.640,  NaN,NaN,0.624, NaN, NaN,15.800, NaN,   NaN,14.00,1011.38,92.00,NaN,79.0,NaN,1.1,NaN,27.3,NaN,2.1,NaN,NaN,0.624,NaN,204.0,NaN,NaN,NaN,2,0.4,125332,   NaN,318.7,     NaN,      NaN,NaN,0.0,NaN, NaN,0.318,NaN,NaN, NaN, NaN
20060205,181657,2.434,31.829820,-119.558800,14.6700,33.3040,0.5300,157916,NaN,14.680,33.300,40.740,  NaN,NaN,0.392, NaN, NaN,16.000, NaN,   NaN,14.80,1013.08,88.80,NaN,308.0,NaN,4.9,NaN,290.0,NaN,9.6,NaN,NaN,0.392,NaN,78.0,NaN,NaN,NaN,2,1.8,181702,   NaN,333.5,     NaN,      NaN,NaN,-0.3,NaN, NaN,0.306,NaN,NaN, NaN, NaN
20060205,234954,2.283,31.522160,-120.228840,16.4800,33.4670,0.1600,177896,NaN,16.490,33.470,42.640,  NaN,NaN,0.224, NaN, NaN,17.700, NaN,   NaN,14.90,1012.70,84.80,NaN,10.0,NaN,5.1,NaN,1.9,NaN,9.9,NaN,NaN,0.224,NaN,78.0,NaN,NaN,NaN,2,1.2,235001,   NaN,349.9,     NaN,      NaN,NaN,-0.8,NaN, NaN,0.270,NaN,NaN, NaN, NaN
20060206,061909,2.138,31.181000,-120.910180,16.8000,33.5210,0.1400,201235,NaN,16.810,33.520,43.010,  NaN,NaN,0.198, NaN, NaN,18.000, NaN,   NaN,14.60,1015.69,86.70,NaN,241.0,NaN,2.3,NaN,181.9,NaN,4.4,NaN,NaN,0.198,NaN,77.0,NaN,NaN,NaN,2,0.8,061900,   NaN,305.6,     NaN,      NaN,NaN,-0.4,NaN, NaN,0.251,NaN,NaN, NaN, NaN
20060206,123904,2.098,30.855820,-121.578750,16.8800,33.5570,0.1500,224035,NaN,16.860,33.550,43.100,  NaN,NaN,0.185, NaN, NaN,18.000, NaN,   NaN,14.60,1015.94,79.80,NaN,95.0,NaN,0.8,NaN,87.0,NaN,1.5,NaN,NaN,0.185,NaN,57.0,NaN,NaN,NaN,2,0.6,123900,   NaN,311.4,     NaN,      NaN,NaN,0.1,NaN, NaN,0.239,NaN,NaN, NaN, NaN
20060206,190908,2.612,30.520660,-122.244840,14.9900,33.1500,0.3700,247434,NaN,14.970,33.150,40.850,  NaN,NaN,0.326, NaN, NaN,16.300, NaN,   NaN,14.50,1019.42,76.90,NaN,177.0,NaN,1.6,NaN,159.0,NaN,3.2,NaN,NaN,0.326,NaN,89.0,NaN,NaN,NaN,2,0.9,190859,   NaN,341.1,     NaN,      NaN,NaN,-0.5,NaN, NaN,0.248,NaN,NaN, NaN, NaN
20060207,022303,2.388,30.182320,-122.920000,15.9900,33.2690,0.1300,273473,NaN,16.020,33.270,41.970,  NaN,NaN,0.180, NaN, NaN,17.300, NaN,   NaN,14.60,1018.36,73.20,NaN,157.0,NaN,1.3,NaN,133.6,NaN,2.5,NaN,NaN,0.180,NaN,19.0,NaN,NaN,NaN,2,0.7,022259,   NaN,330.2,     NaN,      NaN,NaN,0.7,NaN, NaN,0.210,NaN,NaN, NaN, NaN
20060207,080925,2.839,29.852500,-123.583680,17.3800,33.6610,0.1200,294263,NaN,17.380,33.660,43.720,  NaN,NaN,0.127, NaN, NaN,18.500, NaN,   NaN,15.30,1018.92,67.80,NaN,292.0,NaN,1.6,NaN,261.7,NaN,3.2,NaN,NaN,0.127,NaN,44.0,NaN,NaN,NaN,2,0.8,080928,   NaN,343.2,     NaN,      NaN,NaN,-0.4,NaN, NaN,0.190,NaN,NaN, NaN, NaN
20060207,182033,3.525,30.398500,-123.999840,15.9100,33.2440,0.1700,330922,NaN,15.880,33.240,41.820,  NaN,NaN,0.144, NaN, NaN,17.100, NaN,   NaN,15.10,1019.63,69.00,NaN,71.0,NaN,1.2,NaN,89.1,NaN,2.4,NaN,NaN,0.144,NaN,159.0,NaN,NaN,NaN,2,1.0,182028,   NaN,353.5,     NaN,      NaN,NaN,-0.4,NaN, NaN,0.184,NaN,NaN, NaN, NaN
20060207,234501,2.076,30.740660,-123.327680,16.0100,33.1900,0.1500,350392,NaN,16.150,33.200,42.010,  NaN,NaN,0.123, NaN, NaN,17.400, NaN,   NaN,15.30,1017.89,67.60,NaN,314.0,NaN,3.2,NaN,57.8,NaN,6.2,NaN,NaN,0.123,NaN,165.0,NaN,NaN,NaN,2,1.1,234458,   NaN,111.2,     NaN,      NaN,NaN,0.2,NaN, NaN,0.179,NaN,NaN, NaN, NaN
20060208,060538,2.210,31.076320,-122.663680,14.7200,32.9960,0.2200,373221,NaN,14.710,33.000,40.440,  NaN,NaN,0.390, NaN, NaN,16.000, NaN,   NaN,13.50,1019.79,87.40,NaN,0.0,NaN,4.1,NaN,351.8,NaN,7.9,NaN,NaN,0.390,NaN,221.0,NaN,NaN,NaN,2,1.4,060526,   NaN,351.7,     NaN,      NaN,NaN,0.0,NaN, NaN,0.193,NaN,NaN, NaN, NaN
20060208,124521,2.113,31.424540,-121.985840,16.0100,33.4270,0.1800,397221,NaN,16.020,33.430,42.150,  NaN,NaN,0.212, NaN, NaN,17.200, NaN,   NaN,13.40,1017.05,92.40,NaN,8.0,NaN,6.5,NaN,333.6,NaN,12.6,NaN,NaN,0.212,NaN,132.0,NaN,NaN,NaN,2,0.9,124525,   NaN,325.1,     NaN,      NaN,NaN,0.1,NaN, NaN,0.179,NaN,NaN, NaN, NaN
20060208,192401,1.903,31.749000,-121.299500,14.9000,33.3090,0.4000,421130,NaN,14.930,33.310,40.990,  NaN,NaN,0.234, NaN, NaN,16.300, NaN,   NaN,14.90,1016.47,87.20,NaN,355.0,NaN,4.7,NaN,328.3,NaN,9.2,NaN,NaN,0.234,NaN,98.0,NaN,NaN,NaN,2,0.9,192355,   NaN,333.7,     NaN,      NaN,NaN,-0.2,NaN, NaN,0.205,NaN,NaN, NaN, NaN
20060209,012431,2.228,32.086000,-120.633500,14.9200,33.3340,0.5100,442760,NaN,14.950,33.330,41.030,  NaN,NaN,0.686, NaN, NaN,16.200, NaN,   NaN,15.40,1014.12,81.90,NaN,17.0,NaN,2.3,NaN,331.0,NaN,4.5,NaN,NaN,0.686,NaN,110.0,NaN,NaN,NaN,2,1.3,012424,   NaN,309.1,     NaN,      NaN,NaN,0.8,NaN, NaN,0.218,NaN,NaN, NaN, NaN
20060209,081917,2.345,32.419320,-119.954500,14.5500,33.3130,0.5300,467659,NaN,14.560,33.320,40.650,  NaN,NaN,0.784, NaN, NaN,15.900, NaN,   NaN,14.80,1014.14,80.70,NaN,352.0,NaN,3.8,NaN,337.7,NaN,7.4,NaN,NaN,0.784,NaN,11.0,NaN,NaN,NaN,2,0.4,081924,   NaN,346.1,     NaN,      NaN,NaN,1.2,NaN, NaN,0.216,NaN,NaN, NaN, NaN
20060209,131629,2.050,32.661500,-119.479000,14.5300,33.3210,0.6700,485479,NaN,14.540,33.320,40.630,  NaN,NaN,0.750, NaN, NaN,15.900, NaN,   NaN,14.40,1012.18,88.50,NaN,2.0,NaN,4.3,NaN,301.6,NaN,8.4,NaN,NaN,0.750,NaN,278.0,NaN,NaN,NaN,2,0.7,131624,   NaN,299.4,     NaN,      NaN,NaN,1.8,NaN, NaN,0.253,NaN,NaN, NaN, NaN
20060209,185220,2.271,32.920660,-118.938840,14.1000,33.4440,1.7400,505638,NaN,14.360,33.430,40.590,  NaN,NaN,1.384, NaN, NaN,15.700, NaN,   NaN,16.00,1013.55,80.70,NaN,2.0,NaN,2.3,NaN,302.3,NaN,4.4,NaN,NaN,1.384,NaN,343.0,NaN,NaN,NaN,2,0.5,185223,   NaN,300.1,     NaN,      NaN,NaN,1.0,NaN, NaN,0.243,NaN,NaN, NaN, NaN
20060210,002105,2.333,33.189820,-118.388340,15.2400,33.3600,0.3100,525348,NaN,15.950,33.400,42.050,  NaN,NaN,0.407, NaN, NaN,17.400, NaN,   NaN,17.20,1012.71,85.10,NaN,308.0,NaN,1.1,NaN,267.2,NaN,2.2,NaN,NaN,0.407,NaN,23.0,NaN,NaN,NaN,2,0.5,002053,   NaN,329.4,     NaN,      NaN,NaN,1.0,NaN, NaN,0.211,NaN,NaN, NaN, NaN
20060210,032940,1.977,33.249320,-118.242500,15.2700,33.3580,0.3800,536657,NaN,15.520,33.350,41.590,  NaN,NaN,0.418, NaN, NaN,16.900, NaN,   NaN,15.10,1014.77,97.60,NaN,337.0,NaN,4.2,NaN,123.5,NaN,8.2,NaN,NaN,0.418,NaN,157.0,NaN,NaN,NaN,2,0.7,032923,   NaN,148.4,     NaN,      NaN,NaN,1.5,NaN, NaN,0.216,NaN,NaN, NaN, NaN
20060210,074030,2.478,33.416320,-117.911500,15.3100,33.3810,0.3200,551717,NaN,15.300,33.380,41.420,  NaN,NaN,0.362, NaN, NaN,16.600, NaN,   NaN,12.70,1017.32,95.70,NaN,341.0,NaN,5.9,NaN,142.0,NaN,11.5,NaN,NaN,0.362,NaN,263.0,NaN,NaN,NaN,2,0.5,074022,   NaN,161.8,     NaN,      NaN,NaN,0.9,NaN, NaN,0.204,NaN,NaN, NaN, NaN
20060210,102052,1.840,33.487320,-117.766840,14.7300,33.3900,0.7400,561347,NaN,14.730,33.390,40.890,  NaN,NaN,0.485, NaN, NaN,16.000, NaN,   NaN,13.00,1018.55,93.90,NaN,97.0,NaN,1.8,NaN,194.3,NaN,3.5,NaN,NaN,0.485,NaN,348.0,NaN,NaN,NaN,2,0.6,102052,   NaN,87.6,     NaN,      NaN,NaN,1.0,NaN, NaN,0.215,NaN,NaN, NaN, NaN
20060210,113859,2.062,33.495660,-117.747840,14.5000,33.3850,5.3400,566027,NaN,14.500,33.380,40.670,  NaN,NaN,1.228, NaN, NaN,15.800, NaN,   NaN,10.90,1017.97,97.60,NaN,330.0,NaN,2.4,NaN,54.7,NaN,4.7,NaN,NaN,1.228,NaN,320.0,NaN,NaN,NaN,2,0.7,113852,   NaN,92.0,     NaN,      NaN,NaN,0.6,NaN, NaN,0.399,NaN,NaN, NaN, NaN
20060210,214509,1.640,33.674000,-118.088180,14.3200,33.3910,3.0100,602386,NaN,14.600,33.380,40.750,  NaN,NaN,0.470, NaN, NaN,15.900, NaN,   NaN,14.80,1020.08,83.30,NaN,294.0,NaN,2.8,NaN,182.6,NaN,5.4,NaN,NaN,0.470,NaN,330.0,NaN,NaN,NaN,2,0.7,214451,   NaN,257.6,     NaN,      NaN,NaN,0.9,NaN, NaN,0.260,NaN,NaN, NaN, NaN
20060211,021015,2.239,33.890320,-118.448640,14.6600,33.4010,5.2800,618316,NaN,14.660,33.400,40.830,  NaN,NaN,1.202, NaN, NaN,16.000, NaN,   NaN,14.00,1020.48,90.70,NaN,5.0,NaN,3.8,NaN,263.7,NaN,7.4,NaN,NaN,1.202,NaN,276.0,NaN,NaN,NaN,2,0.8,021021,   NaN,258.5,     NaN,      NaN,NaN,1.5,NaN, NaN,0.283,NaN,NaN, NaN, NaN
20060211,024951,2.187,33.888820,-118.493840,15.0200,33.3750,0.8800,620686,NaN,15.020,33.370,41.140,  NaN,NaN,0.371, NaN, NaN,16.300, NaN,   NaN,13.90,1020.81,91.80,NaN,354.0,NaN,3.5,NaN,268.0,NaN,6.8,NaN,NaN,0.371,NaN,271.0,NaN,NaN,NaN,2,0.3,024951,   NaN,273.4,     NaN,      NaN,NaN,1.3,NaN, NaN,0.211,NaN,NaN, NaN, NaN
20060211,052133,2.483,33.821770,-118.627340,14.9100,33.3870,0.4300,629775,NaN,14.880,33.380,41.020,  NaN,NaN,0.407, NaN, NaN,16.200, NaN,   NaN,13.10,1021.99,92.70,NaN,351.0,NaN,4.3,NaN,275.4,NaN,8.4,NaN,NaN,0.407,NaN,280.0,NaN,NaN,NaN,2,0.3,052121,   NaN,287.4,     NaN,      NaN,NaN,1.1,NaN, NaN,0.210,NaN,NaN, NaN, NaN
20060211,092030,2.653,33.659660,-118.976180,14.3900,33.4170,1.4800,644115,NaN,14.410,33.410,40.610,  NaN,NaN,1.110, NaN, NaN,15.700, NaN,   NaN,11.40,1023.27,93.00,NaN,211.0,NaN,1.9,NaN,345.8,NaN,3.7,NaN,NaN,1.110,NaN,297.0,NaN,NaN,NaN,2,0.6,092022,   NaN,135.1,     NaN,      NaN,NaN,1.0,NaN, NaN,0.241,NaN,NaN, NaN, NaN
20060211,134124,2.184,33.500820,-119.317840,13.7400,33.4590,1.8300,659774,NaN,13.750,33.450,40.040,  NaN,NaN,1.072, NaN, NaN,15.000, NaN,   NaN,10.50,1023.24,94.30,NaN,11.0,NaN,0.5,NaN,138.6,NaN,0.9,NaN,NaN,1.072,NaN,5.0,NaN,NaN,NaN,2,0.9,134121,   NaN,318.7,     NaN,      NaN,NaN,1.2,NaN, NaN,0.226,NaN,NaN, NaN, NaN
20060211,174020,2.223,33.319820,-119.664840,12.7500,33.5000,2.0800,674114,NaN,12.760,33.490,39.150,  NaN,NaN,0.981, NaN, NaN,14.000, NaN,   NaN,10.70,1025.28,95.80,NaN,85.0,NaN,3.0,NaN,359.9,NaN,5.8,NaN,NaN,0.981,NaN,147.0,NaN,NaN,NaN,2,0.5,174021,   NaN,275.9,     NaN,      NaN,NaN,0.4,NaN, NaN,0.234,NaN,NaN, NaN, NaN
20060211,212749,2.409,33.159000,-120.001340,13.0600,33.5110,1.6200,687764,NaN,13.040,33.500,39.430,  NaN,NaN,0.846, NaN, NaN,14.400, NaN,   NaN,12.00,1024.64,90.70,NaN,342.0,NaN,4.8,NaN,332.0,NaN,9.4,NaN,NaN,0.846,NaN,78.0,NaN,NaN,NaN,2,0.7,212751,   NaN,345.8,     NaN,      NaN,NaN,1.3,NaN, NaN,0.207,NaN,NaN, NaN, NaN
20060212,013517,2.142,32.982820,-120.345500,13.7100,33.2000,0.5600,702614,NaN,13.720,33.190,39.730,  NaN,NaN,0.762, NaN, NaN,15.000, NaN,   NaN,13.20,1023.44,93.00,NaN,354.0,NaN,8.1,NaN,332.3,NaN,15.8,NaN,NaN,0.762,NaN,152.0,NaN,NaN,NaN,2,0.6,013518,   NaN,339.2,     NaN,      NaN,NaN,1.4,NaN, NaN,0.188,NaN,NaN, NaN, NaN
20060212,073412,2.256,32.662660,-121.035680,13.8500,33.2190,0.7600,724153,NaN,13.860,33.210,39.870,  NaN,NaN,1.078, NaN, NaN,15.100, NaN,   NaN,13.20,1024.51,93.60,NaN,41.0,NaN,10.1,NaN,344.2,NaN,19.7,NaN,NaN,1.078,NaN,201.0,NaN,NaN,NaN,2,1.6,073418,   NaN,301.8,     NaN,      NaN,NaN,0.5,NaN, NaN,0.214,NaN,NaN, NaN, NaN
20060212,134729,2.840,32.321320,-121.714500,14.3300,33.1200,0.4600,746533,NaN,14.290,33.110,40.170,  NaN,NaN,0.702, NaN, NaN,15.600, NaN,   NaN,13.50,1023.89,92.50,NaN,22.0,NaN,11.3,NaN,349.2,NaN,21.9,NaN,NaN,0.702,NaN,115.0,NaN,NaN,NaN,2,1.1,134718,   NaN,330.4,     NaN,      NaN,NaN,1.2,NaN, NaN,0.180,NaN,NaN, NaN, NaN
20060212,194524,2.015,31.978320,-122.393340,15.0200,33.0710,0.2300,768012,NaN,15.030,33.060,40.810,  NaN,NaN,0.150, NaN, NaN,16.300, NaN,   NaN,14.90,1024.53,87.90,NaN,340.0,NaN,11.0,NaN,349.3,NaN,21.5,NaN,NaN,0.150,NaN,181.0,NaN,NaN,NaN,2,0.9,194517,   NaN,12.3,     NaN,      NaN,NaN,1.4,NaN, NaN,0.165,NaN,NaN, NaN, NaN
20060213,011811,2.325,31.648820,-123.071180,14.7600,32.9820,0.2100,787992,NaN,14.720,32.970,40.420,  NaN,NaN,0.276, NaN, NaN,16.000, NaN,   NaN,14.00,1022.27,92.00,NaN,4.0,NaN,7.5,NaN,359.5,NaN,14.6,NaN,NaN,0.276,NaN,200.0,NaN,NaN,NaN,2,0.8,011817,   NaN,356.1,     NaN,      NaN,NaN,1.3,NaN, NaN,0.167,NaN,NaN, NaN, NaN
20060213,070251,2.245,31.321000,-123.736840,15.0200,33.0320,0.2100,808661,NaN,15.000,33.020,40.740,  NaN,NaN,0.294, NaN, NaN,16.200, NaN,   NaN,14.50,1023.66,89.50,NaN,322.0,NaN,10.6,NaN,353.3,NaN,20.6,NaN,NaN,0.294,NaN,110.0,NaN,NaN,NaN,2,1.2,070246,   NaN,35.3,     NaN,      NaN,NaN,1.4,NaN, NaN,0.165,NaN,NaN, NaN, NaN
20060213,135836,1.504,31.909160,-124.167000,16.1500,33.2120,0.1500,833620,NaN,16.140,33.210,42.010,  NaN,NaN,0.119, NaN, NaN,17.300, NaN,   NaN,14.90,1021.68,89.40,NaN,351.0,NaN,7.4,NaN,345.2,NaN,14.3,NaN,NaN,0.119,NaN,198.0,NaN,NaN,NaN,2,0.9,135846,   NaN,356.0,     NaN,      NaN,NaN,1.2,NaN, NaN,0.216,NaN,NaN, NaN, NaN
20060213,202630,1.445,32.237660,-123.500000,15.1000,33.0670,0.2600,856870,NaN,15.060,33.060,40.830,  NaN,NaN,0.144, NaN, NaN,16.400, NaN,   NaN,15.40,1020.83,88.40,NaN,355.0,NaN,8.0,NaN,340.2,NaN,15.5,NaN,NaN,0.144,NaN,222.0,NaN,NaN,NaN,2,0.9,202615,   NaN,345.5,     NaN,      NaN,NaN,1.0,NaN, NaN,0.203,NaN,NaN, NaN, NaN
20060214,023901,1.717,32.578000,-122.811840,15.2700,33.0600,0.1400,879219,NaN,15.250,33.050,41.000,  NaN,NaN,0.192, NaN, NaN,16.500, NaN,   NaN,14.90,1017.75,90.80,NaN,354.0,NaN,9.5,NaN,323.6,NaN,18.4,NaN,NaN,0.192,NaN,337.0,NaN,NaN,NaN,2,0.8,023845,   NaN,335.5,     NaN,      NaN,NaN,1.1,NaN, NaN,0.166,NaN,NaN, NaN, NaN
20060214,084630,2.561,32.910000,-122.129180,14.8500,33.0190,0.2000,901269,NaN,14.860,33.010,40.590,  NaN,NaN,0.317, NaN, NaN,16.100, NaN,   NaN,14.00,1017.00,87.90,NaN,343.0,NaN,10.1,NaN,331.5,NaN,19.6,NaN,NaN,0.317,NaN,179.0,NaN,NaN,NaN,2,1.1,084614,   NaN,349.9,     NaN,      NaN,NaN,1.0,NaN, NaN,0.297,NaN,NaN, NaN, NaN
20060214,184742,2.089,33.246500,-121.440680,13.5500,33.1650,1.4000,937358,NaN,13.550,33.150,39.530,  NaN,NaN,0.809, NaN, NaN,14.800, NaN,   NaN,13.20,1014.81,85.80,NaN,332.0,NaN,10.6,NaN,311.1,NaN,20.5,NaN,NaN,0.809,NaN,14.0,NaN,NaN,NaN,2,1.1,184743,   NaN,340.5,     NaN,      NaN,NaN,1.3,NaN, NaN,0.201,NaN,NaN, NaN, NaN
20060215,002051,1.486,33.580160,-120.746500,12.9200,33.2520,3.1100,957338,NaN,12.940,33.250,39.060,  NaN,NaN,1.458, NaN, NaN,14.300, NaN,   NaN,13.20,1011.24,87.40,NaN,11.0,NaN,5.2,NaN,313.5,NaN,10.0,NaN,NaN,1.458,NaN,113.0,NaN,NaN,NaN,2,0.9,002042,   NaN,301.5,     NaN,      NaN,NaN,0.7,NaN, NaN,0.225,NaN,NaN, NaN, NaN
20060215,045000,2.257,33.744500,-120.395000,13.5100,33.2410,1.3100,973477,NaN,13.510,33.240,39.580,  NaN,NaN,1.230, NaN, NaN,14.800, NaN,   NaN,13.00,1013.93,86.70,NaN,352.0,NaN,9.7,NaN,324.1,NaN,18.8,NaN,NaN,1.230,NaN,137.0,NaN,NaN,NaN,2,1.8,044942,   NaN,332.9,     NaN,      NaN,NaN,0.7,NaN, NaN,0.215,NaN,NaN, NaN, NaN
20060215,133318,1.792,34.179320,-119.511340,14.4000,33.3910,1.7000,1004887,NaN,14.410,33.380,40.580,  NaN,NaN,0.774, NaN, NaN,15.600, NaN,   NaN,11.80,1013.09,78.30,NaN,355.0,NaN,3.4,NaN,277.8,NaN,6.6,NaN,NaN,0.774,NaN,73.0,NaN,NaN,NaN,2,0.8,133312,   NaN,279.3,     NaN,      NaN,NaN,0.3,NaN, NaN,0.235,NaN,NaN, NaN, NaN
20060215,161102,1.887,34.267160,-119.330840,14.5500,33.3960,3.4800,1014367,NaN,14.540,33.390,40.710,  NaN,NaN,0.824, NaN, NaN,15.800, NaN,   NaN,13.50,1014.02,66.80,NaN,308.0,NaN,0.7,NaN,251.6,NaN,1.3,NaN,NaN,0.824,NaN,346.0,NaN,NaN,NaN,2,0.9,161111,   NaN,286.8,     NaN,      NaN,NaN,1.1,NaN, NaN,1.091,NaN,NaN, NaN, NaN
20060215,184448,1.553,34.225500,-119.414500,14.4800,33.3900,1.8200,1023576,NaN,14.480,33.380,40.650,  NaN,NaN,0.512, NaN, NaN,15.700, NaN,   NaN,12.70,1014.59,57.50,NaN,343.0,NaN,13.8,NaN,286.4,NaN,26.9,NaN,NaN,0.512,NaN,35.0,NaN,NaN,NaN,2,0.7,184441,   NaN,299.1,     NaN,      NaN,NaN,0.9,NaN, NaN,0.378,NaN,NaN, NaN, NaN
20060216,055627,2.226,34.285320,-120.018200,13.6500,33.4350,3.6000,1063865,NaN,13.660,33.420,39.920,  NaN,NaN,1.141, NaN, NaN,14.900, NaN,   NaN,10.20,1018.37,74.60,NaN,337.0,NaN,13.6,NaN,318.8,NaN,26.3,NaN,NaN,1.141,NaN,10.0,NaN,NaN,NaN,2,1.2,055610,   NaN,335.5,     NaN,      NaN,NaN,1.5,NaN, NaN,0.241,NaN,NaN, NaN, NaN
20060216,095611,2.042,34.467160,-120.487500,11.9500,33.5870,2.8400,1078265,NaN,11.940,33.580,38.490,  NaN,NaN,0.657, NaN, NaN,13.200, NaN,   NaN,9.00,1019.55,57.70,NaN,341.0,NaN,8.7,NaN,341.9,NaN,16.9,NaN,NaN,0.657,NaN,44.0,NaN,NaN,NaN,2,0.9,095610,   NaN,2.7,     NaN,      NaN,NaN,0.8,NaN, NaN,0.409,NaN,NaN, NaN, NaN
20060216,105950,1.982,34.448660,-120.518500,12.1500,33.5550,1.5200,1082075,NaN,12.140,33.540,38.630,  NaN,NaN,0.541, NaN, NaN,13.400, NaN,   NaN,8.80,1019.42,55.40,NaN,1.0,NaN,9.4,NaN,322.5,NaN,18.2,NaN,NaN,0.541,NaN,142.0,NaN,NaN,NaN,2,0.8,105940,   NaN,327.4,     NaN,      NaN,NaN,0.0,NaN, NaN,0.325,NaN,NaN, NaN, NaN
20060216,143908,1.874,34.322160,-120.802340,12.8700,33.5040,3.0600,1095244,NaN,12.880,33.490,39.260,  NaN,NaN,0.925, NaN, NaN,14.100, NaN,   NaN,10.20,1020.09,59.00,NaN,6.0,NaN,9.4,NaN,350.6,NaN,18.2,NaN,NaN,0.925,NaN,123.0,NaN,NaN,NaN,2,1.1,143910,   NaN,335.3,     NaN,      NaN,NaN,-0.4,NaN, NaN,0.248,NaN,NaN, NaN, NaN
20060216,192040,2.271,34.148500,-121.147340,12.7900,33.1210,0.7300,1112134,NaN,12.800,33.100,38.790,  NaN,NaN,0.282, NaN, NaN,14.100, NaN,   NaN,10.80,1021.43,52.60,NaN,34.0,NaN,10.1,NaN,347.7,NaN,19.6,NaN,NaN,0.282,NaN,177.0,NaN,NaN,NaN,2,0.5,192039,   NaN,312.4,     NaN,      NaN,NaN,-0.3,NaN, NaN,0.179,NaN,NaN, NaN, NaN
20060217,013949,2.086,33.819320,-121.835340,13.9300,33.0250,0.5300,1134874,NaN,13.920,33.010,39.720,  NaN,NaN,0.747, NaN, NaN,15.200, NaN,   NaN,10.90,1018.53,64.60,NaN,1.0,NaN,6.4,NaN,322.7,NaN,12.5,NaN,NaN,0.747,NaN,15.0,NaN,NaN,NaN,2,0.7,013939,   NaN,327.7,     NaN,      NaN,NaN,0.7,NaN, NaN,0.179,NaN,NaN, NaN, NaN
20060217,080224,2.252,33.486820,-122.532680,14.8200,32.9960,0.1600,1157823,NaN,14.830,32.980,40.530,  NaN,NaN,0.241, NaN, NaN,15.900, NaN,   NaN,12.30,1018.46,65.30,NaN,335.0,NaN,7.5,NaN,252.8,NaN,14.6,NaN,NaN,0.241,NaN,338.0,NaN,NaN,NaN,2,0.6,080209,   NaN,281.2,     NaN,      NaN,NaN,0.7,NaN, NaN,0.160,NaN,NaN, NaN, NaN
20060217,140204,1.948,33.159660,-123.209340,14.7300,33.0750,0.4100,1179423,NaN,14.700,33.050,40.490,  NaN,NaN,0.505, NaN, NaN,16.000, NaN,   NaN,12.20,1015.80,78.30,NaN,22.0,NaN,9.6,NaN,313.6,NaN,18.7,NaN,NaN,0.505,NaN,89.0,NaN,NaN,NaN,2,1.3,140208,   NaN,288.7,     NaN,      NaN,NaN,0.2,NaN, NaN,0.181,NaN,NaN, NaN, NaN
20060217,201854,2.041,32.812320,-123.896000,14.9500,33.0160,0.2500,1202012,NaN,14.960,33.000,40.670,  NaN,NaN,0.148, NaN, NaN,16.200, NaN,   NaN,13.00,1017.80,60.70,NaN,349.0,NaN,10.0,NaN,312.9,NaN,19.5,NaN,NaN,0.148,NaN,102.0,NaN,NaN,NaN,2,0.8,201838,   NaN,322.2,     NaN,      NaN,NaN,0.0,NaN, NaN,0.163,NaN,NaN, NaN, NaN
20060218,032225,2.071,33.381820,-124.315180,15.3100,33.0750,0.1700,1227451,NaN,15.310,33.060,41.070,  NaN,NaN,0.218, NaN, NaN,16.500, NaN,   NaN,11.80,1017.32,63.50,NaN,340.0,NaN,8.2,NaN,303.2,NaN,15.9,NaN,NaN,0.218,NaN,125.0,NaN,NaN,NaN,2,0.8,032237,   NaN,324.2,     NaN,      NaN,NaN,-0.1,NaN, NaN,0.161,NaN,NaN, NaN, NaN
20060218,092931,2.024,33.727500,-123.626340,14.6000,32.9070,0.2400,1249471,NaN,14.600,32.890,40.220,  NaN,NaN,0.275, NaN, NaN,15.900, NaN,   NaN,10.90,1017.47,62.00,NaN,17.0,NaN,7.9,NaN,326.8,NaN,15.4,NaN,NaN,0.275,NaN,348.0,NaN,NaN,NaN,2,0.5,092936,   NaN,304.3,     NaN,      NaN,NaN,0.3,NaN, NaN,0.161,NaN,NaN, NaN, NaN
20060218,170656,1.929,34.053820,-122.940000,14.0000,32.8570,0.3500,1276920,NaN,13.990,32.850,39.600,  NaN,NaN,0.320, NaN, NaN,15.200, NaN,   NaN,11.80,1017.89,56.30,NaN,336.0,NaN,6.3,NaN,265.0,NaN,12.2,NaN,NaN,0.320,NaN,99.0,NaN,NaN,NaN,2,0.8,170705,   NaN,283.6,     NaN,      NaN,NaN,0.0,NaN, NaN,0.167,NaN,NaN, NaN, NaN
20060218,221810,1.755,34.385320,-122.245840,12.9300,33.2030,1.1000,1295580,NaN,13.190,33.120,39.160,  NaN,NaN,0.432, NaN, NaN,14.500, NaN,   NaN,10.80,1016.67,67.60,NaN,235.0,NaN,6.8,NaN,180.5,NaN,13.2,NaN,NaN,0.432,NaN,146.0,NaN,NaN,NaN,2,1.0,221806,   NaN,309.3,     NaN,      NaN,NaN,-0.9,NaN, NaN,0.190,NaN,NaN, NaN, NaN
20060219,042225,1.776,34.720820,-121.548840,12.4000,33.3910,1.7800,1317449,NaN,12.410,33.380,38.710,  NaN,NaN,1.123, NaN, NaN,13.700, NaN,   NaN,9.80,1017.07,71.40,NaN,301.0,NaN,4.2,NaN,215.2,NaN,8.2,NaN,NaN,1.123,NaN,43.0,NaN,NaN,NaN,2,0.3,042235,   NaN,290.7,     NaN,      NaN,NaN,0.1,NaN, NaN,0.217,NaN,NaN, NaN, NaN
20060220,121830,1.838,34.894500,-121.191840,12.9900,33.1200,0.8100,1432411,NaN,13.000,33.120,38.980,  NaN,NaN,0.975, NaN, NaN,14.800, NaN,   NaN,9.50,1022.59,77.50,NaN,99.0,NaN,6.3,NaN,38.5,NaN,12.3,NaN,NaN,0.975,NaN,273.0,NaN,NaN,NaN,2,0.5,121837,   NaN,297.7,     NaN,      NaN,NaN,1.0,NaN, NaN,0.243,NaN,NaN, NaN, NaN
20060220,154511,2.016,35.021320,-120.922000,11.8200,33.5650,5.9900,1444800,NaN,11.830,33.560,38.360,  NaN,NaN,1.329, NaN, NaN,13.100, NaN,   NaN,9.10,1023.81,78.90,NaN,203.0,NaN,3.8,NaN,58.6,NaN,7.5,NaN,NaN,1.329,NaN,358.0,NaN,NaN,NaN,2,0.5,154507,   NaN,217.4,     NaN,      NaN,NaN,-0.7,NaN, NaN,0.232,NaN,NaN, NaN, NaN
20060220,185427,1.615,35.089500,-120.776500,12.0200,33.5800,8.6800,1456170,NaN,12.020,33.570,38.550,  NaN,NaN,0.806, NaN, NaN,13.300, NaN,   NaN,10.80,1024.54,60.80,NaN,300.0,NaN,0.7,NaN,142.3,NaN,1.3,NaN,NaN,0.806,NaN,133.0,NaN,NaN,NaN,2,0.5,185437,   NaN,221.5,     NaN,      NaN,NaN,0.1,NaN, NaN,0.273,NaN,NaN, NaN, NaN
